This is the latest recevied weather packets stored in our database for station/object K1BES. If no packets are shown the sender has not sent any weather packets the latest 10 day(s).
| Time | Temp. | Humidity | Pressure | Rain* | Wind** | Luminosity | Snow |
|---|---|---|---|---|---|---|---|
| 1788548879 | 34.44° C | 69% | 1017.1 hPa | 0 mm | - | 902 W/m² | - |
| 1788548574 | 33.89° C | 67% | 1017.2 hPa | 0 mm | - | 920 W/m² | - |
| 1788548271 | 33.89° C | 68% | 1017.3 hPa | 0 mm | - | 929 W/m² | - |
| 1788547965 | 33.89° C | 67% | 1017.1 hPa | 0 mm | - | 934 W/m² | - |
| 1788547664 | 33.89° C | 68% | 1017.1 hPa | 0 mm | - | 944 W/m² | - |
| 1788547360 | 33.89° C | 68% | 1017.3 hPa | 0 mm | - | 951 W/m² | - |
| 1788547056 | 33.89° C | 68% | 1017.3 hPa | 0 mm | - | 959 W/m² | - |
| 1788546751 | 33.89° C | 67% | 1017.3 hPa | 0 mm | - | 968 W/m² | - |
| 1788546446 | 33.89° C | 67% | 1017.4 hPa | 0 mm | - | 975 W/m² | - |
| 1788546163 | 33.89° C | 69% | 1017.1 hPa | 0 mm | - | 981 W/m² | - |
| 1788545836 | 33.89° C | 67% | 1017.5 hPa | 0 mm | - | 986 W/m² | - |
| 1788545536 | 33.89° C | 68% | 1017.7 hPa | 0 mm | - | 992 W/m² | - |
| 1788545232 | 33.89° C | 67% | 1017.7 hPa | 0 mm | - | 996 W/m² | - |
| 1788544927 | 33.89° C | 69% | 1017.7 hPa | 0 mm | - | 1002 W/m² | - |
| 1788544627 | 33.89° C | 67% | 1017.8 hPa | 0 mm | - | 1005 W/m² | - |
| 1788544325 | 33.89° C | 69% | 1017.5 hPa | 0 mm | - | 1010 W/m² | - |
| 1788544025 | 33.33° C | 69% | 1017.5 hPa | 0 mm | - | 1016 W/m² | - |
| 1788543721 | 33.89° C | 69% | 1017.8 hPa | 0 mm | - | 1022 W/m² | - |
| 1788543416 | 33.89° C | 68% | 1017.8 hPa | 0 mm | - | 1027 W/m² | - |
| 1788543111 | 33.89° C | 68% | 1017.9 hPa | 0 mm | - | 1029 W/m² | - |
| 1788542808 | 33.89° C | 69% | 1017.7 hPa | 0 mm | - | 1033 W/m² | - |
| 1788542507 | 33.89° C | 68% | 1017.8 hPa | 0 mm | - | 965 W/m² | - |
| 1788542202 | 33.89° C | 68% | 1017.8 hPa | 0 mm | - | 1036 W/m² | - |
| 1788541897 | 33.89° C | 69% | 1018 hPa | 0 mm | - | 1064 W/m² | - |
| 1788541594 | 33.89° C | 69% | 1017.9 hPa | 0 mm | - | 921 W/m² | - |
* Rain latest hour (hover to see other rain measurements)
** Current wind speed in m/s (hover to see current wind gust speed)